CZ-6A DEB, 60708

Orbit data source: Space-Track

CZ-6A DEB, 60708 is space debris in LEO originally from a launch on Tue, 06 Aug 2024 UTC launched from the Taiyaun Space Center, China (TSC). Debris objects in space refer to the collection of defunct objects orbiting the Earth. Examples of debris include non-operational satellites, rocket bodies, and fragments generated from explosions, collisions, or faulty payload assembly.

Loading next visibility...
Identifier
60708, 2024-140DM
Orbit
LEO
Country
Flag of CNCN / PRC
Related business
Manufacturer
SAST
Mission
Spacecraft
Bus & Motor
Unknown
Mass
Unknown
Launch date (UTC)
2024-08-06 (2 years ago)
Launch vehicle
Unknown
Launch site
Taiyaun Space Center, China (TSC)
Object type
Payload
Rocket body
Debris
Shape & HBR
Unknown shape, 0.3 m
Radar Cross Section
Medium (>0.1 m² and <1 m²)

Expand to show TLE details & history
Last TLE update: 14 hours ago

TLE from 14 hours ago
0 CZ-6A DEB
1 60708U 24140DM  26171.26965839  .00001326  00000-0  50182-3 0  9998
2 60708  89.0049 273.5351 0039764 211.9698 147.9085 14.30283328 96669
Epoch: 2026-06-20T06:28Z
TLE epoch observation values (Epoch: 2026-06-20T06:28:18.484Z)
Latitude
-0.00007°
Longitude
-92.02862°
Altitude
818.039 km
Speed
7.432 km/s
True Right ascension
18h 14m 08s
True Declination
0° 00' 00"
Sunlit
Object was in full shadow at epoch
Visualization orbit readout
Latitude
Unknown
Longitude
Unknown
Altitude
Unknown
Speed
Unknown
Apparent Right ascension
Unknown
Apparent Declination
Unknown
Sunlit
N/A
Visualization observer readout
Local Sidereal Time
07:20:46
Azimuth
Unknown
Elevation
Unknown
Doppler factor
Unknown
Orbital elements
Apogee altitude
816.215 km
Perigee altitude
759.226 km
Semi-major axis
7,165.857 km
Eccentricity
0.00398
Inclination
89.0049°
RAAN
273.5351°
Arg. of periapsis
211.9698°
True anomaly
148.14956°
Mean anomaly
147.9085°
Eccentric anomaly
148.02913°
Mean motion
3.578 °/min
Orbital period
100.61 mins
BSTAR
0.00050182
Loading maneuver chart data...
Computing Atmospheric mass density...
Loading historical data...
Loading historical data...
Loading historical data...
Loading historical data...
Loading historical data...
Loading historical data...
Loading historical data...

Documentation

Showing up to 5 results
|